Location: Zihuatanejo
(17.6330°N, 101.5500°W)
Time: 16:09:05
(UTC-05:00)

Tiangong 2 - Pass Details

Date: 28 March 2019
Orbit: 378 x 389 km, 42.8° (Epoch: 20 April)

Event Time Altitude Azimuth Distance (km) Brightness Sun altitude
Exits shadow 06:25:41 22° 171° (S) 881 2.8 -19.4°
Drops below altitude 10° 06:27:08 10° 155° (SSE) 1,392 4.1 -19.0°
Sets 06:29:18 0° 146° (SE) 2,245 5.3 -18.5°
